Regional Weather Roundup
Issued by NWS Kansas City/Pleasant Hill, MO

Home | Current Version | Previous Version | Graphics & Text | Print | Product List | Glossary Off
Versions: 1 2 3 4 5 6 7 8 9 10 11 12 13 14 15 16 17 18 19 20 21 22 23 24 25 26 27 28 29 30 31 32 33 34 35 36 37 38 39 40 41 42 43 44 45 46 47 48 49 50

238
ASUS43 KEAX 261210
RWREAX

WEATHER ROUNDUP FOR EASTERN KANSAS AND NORTHWEST MISSOURI
NATIONAL WEATHER SERVICE KANSAS CITY/PLEASANT HILL MO
700 AM CDT WED JUL 26 2017

KSZ040-057-103>105-MOZ028-029-037-043-261300-
...KANSAS CITY METROPOLITAN AREA...

CITY           SKY/WX    TMP DP  RH WIND       PRES   REMARKS
K.C. INTL      CLOUDY    80  73  79 S12       30.00S
6HR MIN TEMP:  78; 6HR MAX TEMP:  81;

K.C. DOWNTOWN  CLOUDY    81  74  79 S9        29.99S
6HR MIN TEMP:  80; 6HR MAX TEMP:  85;

LEES SUMMIT    PTCLDY    79  74  84 SW10      30.02S
6HR MIN TEMP:  79; 6HR MAX TEMP:  81;

OLATHE - IXD   CLOUDY    77  73  87 S7        30.02R
6HR MIN TEMP:  77; 6HR MAX TEMP:  80;

OLATHE - OJC   MOCLDY    76  74  93 S7        30.02S
6HR MIN TEMP:  75; 6HR MAX TEMP:  79;

LAWRENCE       CLOUDY    78  74  87 SE6       29.99S

$$

MOZ001>008-011>017-020>025-030>033-038>040-044>046-053-054-261300-
...NORTHERN AND CENTRAL MISSOURI...

CITY           SKY/WX    TMP DP  RH WIND       PRES   REMARKS
ST. JOSEPH     CLOUDY    78  75  90 S7        29.98F
6HR MIN TEMP:  77; 6HR MAX TEMP:  82;

MOSBY          MOSUNNY   73  72  94 SE6       30.00S
WARRENSBURG    CLOUDY    73  70  88 S3        30.02S
WHITEMAN AFB   MOCLDY    76  76 100 S7        30.03R
6HR MIN TEMP:  73; 6HR MAX TEMP:  77;

CLINTON        PTCLDY    77  73  88 S5        30.05R
SEDALIA        CLOUDY    75  73  93 S6        30.05R
6HR MIN TEMP:  73; 6HR MAX TEMP:  78;

WARSAW         NOT AVBL
CHILLICOTHE      N/A     75  72  90 SE3       30.02S
6HR MIN TEMP:  74; 6HR MAX TEMP:  78;

KIRKSVILLE     PTCLDY    73  72  96 S6        30.05R FOG
6HR MIN TEMP:  70; 6HR MAX TEMP:  74;


$$

MOZ041-047>049-056>058-063>065-088>090-097-261300-
...EASTERN AND SOUTHERN MISSOURI...

CITY           SKY/WX    TMP DP  RH WIND       PRES   REMARKS
ST. LOUIS INTL PTSUNNY   78  71  79 SE7       30.05S
6HR MIN TEMP:  78; 6HR MAX TEMP:  81;

SPIRIT OF STL  MOSUNNY   75  74  96 CALM      30.03S
COLUMBIA       CLEAR     73  72  96 SE6       30.04S FOG
JEFFERSON CITY PTCLDY    74  73  97 CALM      30.03R
ROLLA          CLEAR     75  70  84 SW9       30.07R
OSAGE BEACH    CLEAR     73  70  90 CALM      30.06R
SPRINGFIELD    CLEAR     74  72  93 S6        30.09R
BRANSON        MOCLDY    75  72  88 CALM      30.11R
JOPLIN         PTCLDY    79  74  84 S9        30.06S
WEST PLAINS    PTCLDY    75  72  90 SW5       30.10F

$$

IAZ060-094-KSZ022-034>040-054-083-096-NEZ052-066-093-261300-
...KANSAS...SOUTHEAST NEBRASKA AND IOWA...

CITY           SKY/WX    TMP DP  RH WIND       PRES   REMARKS
TOPEKA         CLOUDY    79  75  87 SE5       29.98S
6HR MIN TEMP:  79; 6HR MAX TEMP:  81;

MANHATTAN      CLOUDY    77  71  82 SW3       29.96F
EMPORIA        CLOUDY    76  72  87 S12       29.99S
CHANUTE        PTCLDY    78  73  84 MISG      30.02S
WICHITA        MOCLDY    80  71  74 S15       29.96F
OMAHA          LGT RAIN  75  70  84 SE5       29.98F
LINCOLN        LGT RAIN  74  73  97 S10       29.98R
FALLS CITY     CLOUDY    79  72  79 S5        29.96R
LAMONI         MOCLDY    73  69  87 S7        30.01F
DES MOINES     CLOUDY    75  69  81 S7        29.99R

$$





USA.gov is the U.S. government's official web portal to all federal, state and local government web resources and services.